KO4MMQ-10 Weather Reports


time (UTC)temp
C
wind
direction
speed
KPH
gust
KPH
rain 1hr
cm
rain 24hr
cm
rain mn
cm
humidity
%
barometer
mb
20260906065558 26 0 0.0 0.0 0.00 0.00 0.00 81 1011.5
20260906064558 26 0 0.0 0.0 0.00 0.00 0.00 81 1011.4
20260906063558 26 0 0.0 0.0 0.00 0.00 0.00 81 1011.6
20260906062558 27 0 0.0 0.0 0.00 0.00 0.00 81 1011.6
20260906061558 27 0 0.0 0.0 0.00 0.00 0.00 81 1011.8
20260906060557 27 0 0.0 0.0 0.00 0.00 0.00 81 1011.9
20260906055557 27 0 0.0 0.0 0.00 0.00 0.00 83 1012.0
20260906054557 27 0 0.0 0.0 0.00 0.00 0.00 82 1011.8
20260906053557 27 0 0.0 0.0 0.00 0.00 0.00 82 1011.8
20260906052558 27 0 0.0 0.0 0.00 0.00 0.00 80 1011.8
20260906051557 27 0 0.0 0.0 0.00 0.00 0.00 79 1011.8
20260906050557 27 0 0.0 0.0 0.00 0.00 0.00 79 1011.8
20260906045557 27 0 0.0 0.0 0.00 0.00 0.00 79 1011.7
20260906044557 27 0 0.0 0.0 0.00 0.00 0.00 78 1011.6
20260906043558 27 0 0.0 0.0 0.00 0.00 0.00 77 1011.6
20260906042558 27 0 0.0 0.0 0.00 0.00 0.00 76 1011.6
20260906041557 28 0 0.0 0.0 0.00 0.00 0.00 75 1011.7
20260906040558 28 0 0.0 0.0 0.00 0.00 0.00 74 1011.8
20260906035557 28 0 0.0 0.0 0.00 0.00 0.00 74 1011.8
20260906034557 28 0 0.0 0.0 0.00 0.00 0.00 73 1011.8
20260906033557 28 0 0.0 0.0 0.00 0.00 0.00 72 1011.7
20260906032557 28 0 0.0 0.0 0.00 0.00 0.00 73 1011.8
20260906031558 28 0 0.0 0.0 0.00 0.00 0.00 72 1011.7
20260906030558 28 0 0.0 0.0 0.00 0.00 0.00 72 1011.7
20260906025558 28 0 0.0 0.0 0.00 0.00 0.00 71 1011.6
20260906024557 29 0 0.0 0.0 0.00 0.00 0.00 71 1011.6
20260906023557 29 0 0.0 0.0 0.00 0.00 0.00 70 1011.6
20260906022558 29 0 0.0 0.0 0.00 0.00 0.00 70 1011.4
20260906021557 30 0 0.0 0.0 0.00 0.00 0.00 69 1011.4
20260906020557 30 0 0.0 0.0 0.00 0.00 0.00 67 1011.2
20260906015557 30 0 0.0 0.0 0.00 0.00 0.00 66 1011.1
20260906014557 30 0 0.0 0.0 0.00 0.00 0.00 66 1011.0
20260906013557 30 0 0.0 0.0 0.00 0.00 0.00 65 1010.8
20260906012557 30 0 0.0 0.0 0.00 0.00 0.00 64 1010.7
20260906011557 31 0 0.0 0.0 0.00 0.00 0.00 62 1010.2
20260906010558 31 0 0.0 0.0 0.00 0.00 0.00 62 1010.3
20260906005559 31 0 0.0 0.0 0.00 0.00 0.00 60 1010.3
20260906004558 31 0 0.0 0.0 0.00 0.00 0.00 59 1010.2
20260906003559 32 0 0.0 0.0 0.00 0.00 0.00 57 1010.0
20260906002557 32 0 0.0 0.0 0.00 0.00 0.00 56 1010.2
20260906001557 33 0 0.0 0.0 0.00 0.00 0.00 54 1010.2
20260906000557 33 0 0.0 0.0 0.00 0.00 0.00 53 1010.1
20260905235558 34 0 0.0 0.0 0.00 0.00 0.00 51 1010.3
20260905234557 35 0 0.0 0.0 0.00 0.00 0.00 50 1010.1
20260905233557 35 0 0.0 0.0 0.00 0.00 0.00 49 1010.3
20260905232557 35 0 0.0 0.0 0.00 0.00 0.00 48 1010.4
20260905231557 36 0 0.0 0.0 0.00 0.00 0.00 46 1010.2
20260905230557 36 0 0.0 0.0 0.00 0.00 0.00 45 1010.1
20260905225557 37 0 0.0 1.6 0.00 0.00 0.00 43 1010.0
20260905224557 37 0 0.0 0.0 0.00 0.00 0.00 42 1010.2
20260905223557 37 0 0.0 0.0 0.00 0.00 0.00 41 1010.1
20260905222558 38 0 0.0 3.2 0.00 0.00 0.00 40 1010.2
20260905221558 37 0 0.0 1.6 0.00 0.00 0.00 41 1010.3
20260905220558 37 0 0.0 3.2 0.00 0.00 0.00 41 1010.3
20260905215558 37 0 0.0 1.6 0.00 0.00 0.00 43 1010.3
20260905214558 36 32 1.6 3.2 0.00 0.00 0.00 46 1010.5
20260905213558 36 63 1.6 4.8 0.00 0.00 0.00 47 1010.4
20260905212558 36 56 3.2 4.8 0.00 0.00 0.00 48 1010.6
20260905211558 36 43 1.6 3.2 0.00 0.00 0.00 46 1010.6
20260905210558 36 36 1.6 3.2 0.00 0.00 0.00 46 1010.6
20260905205559 37 110 3.2 4.8 0.00 0.00 0.00 44 1010.9
20260905204558 38 63 1.6 4.8 0.00 0.00 0.00 41 1010.9
20260905203558 37 0 0.0 1.6 0.00 0.00 0.00 41 1011.1
20260905202558 36 28 3.2 4.8 0.00 0.00 0.00 44 1011.3
20260905201558 36 64 1.6 3.2 0.00 0.00 0.00 48 1011.4
20260905200558 36 48 4.8 4.8 0.00 0.00 0.00 45 1011.5
20260905195558 38 38 6.4 9.7 0.00 0.00 0.00 43 1011.6
20260905194558 38 36 3.2 3.2 0.00 0.00 0.00 40 1011.8
20260905193558 38 30 1.6 1.6 0.00 0.00 0.00 39 1011.8
20260905192558 38 48 3.2 6.4 0.00 0.00 0.00 40 1012.0
20260905191558 37 27 3.2 3.2 0.00 0.00 0.00 42 1012.2
20260905190559 37 21 1.6 3.2 0.00 0.00 0.00 43 1012.3
20260905185559 37 32 1.6 3.2 0.00 0.00 0.00 44 1012.3
20260905184558 37 25 1.6 3.2 0.00 0.00 0.00 44 1012.5
20260905183558 37 342 1.6 1.6 0.00 0.00 0.00 45 1012.6
20260905182558 37 0 0.0 0.0 0.00 0.00 0.00 45 1012.6
20260905181558 37 51 1.6 3.2 0.00 0.00 0.00 45 1012.8
20260905180558 37 79 1.6 1.6 0.00 0.00 0.00 48 1012.9
20260905175558 37 22 4.8 6.4 0.00 0.00 0.00 47 1013.1
20260905174559 37 0 0.0 1.6 0.00 0.00 0.00 46 1013.2
20260905173558 37 335 1.6 1.6 0.00 0.00 0.00 46 1013.3
20260905172558 36 338 1.6 4.8 0.00 0.00 0.00 47 1013.3
20260905171558 36 0 0.0 1.6 0.00 0.00 0.00 50 1013.4
20260905170558 36 52 3.2 3.2 0.00 0.00 0.00 50 1013.4
20260905165558 36 0 0.0 0.0 0.00 0.00 0.00 52 1013.5
20260905164558 35 0 0.0 3.2 0.00 0.00 0.00 53 1013.6
20260905163558 35 0 0.0 0.0 0.00 0.00 0.00 54 1013.7
20260905162558 36 232 3.2 3.2 0.00 0.00 0.00 55 1013.8
20260905161558 35 0 0.0 4.8 0.00 0.00 0.00 56 1014.1
20260905160558 34 86 3.2 3.2 0.00 0.00 0.00 53 1014.0
20260905155558 33 0 0.0 1.6 0.00 0.00 0.00 56 1014.0
20260905154558 33 0 0.0 1.6 0.00 0.00 0.00 59 1014.0
20260905153558 32 0 0.0 0.0 0.00 0.00 0.00 59 1014.0
20260905152558 32 70 1.6 1.6 0.00 0.00 0.00 61 1014.2
20260905151558 32 0 0.0 0.0 0.00 0.00 0.00 63 1014.3
20260905150558 31 0 0.0 0.0 0.00 0.00 0.00 66 1014.1
20260905145558 31 0 0.0 0.0 0.00 0.00 0.00 68 1014.0
20260905144559 30 0 0.0 0.0 0.00 0.00 0.00 69 1014.0
20260905143558 30 0 0.0 0.0 0.00 0.00 0.00 69 1014.1
20260905142559 30 0 0.0 0.0 0.00 0.00 0.00 72 1013.9
20260905141558 29 0 0.0 0.0 0.00 0.00 0.00 73 1014.1
20260905140558 28 0 0.0 0.0 0.00 0.00 0.00 73 1013.8
20260905135558 28 0 0.0 0.0 0.00 0.00 0.00 75 1013.9
20260905134558 28 0 0.0 0.0 0.00 0.00 0.00 77 1014.0
20260905133558 27 0 0.0 0.0 0.00 0.00 0.00 79 1014.0
20260905132558 27 0 0.0 0.0 0.00 0.00 0.00 81 1014.0
20260905131558 26 0 0.0 0.0 0.00 0.00 0.00 82 1013.9
20260905130558 26 0 0.0 0.0 0.00 0.00 0.00 84 1014.1
20260905125558 25 0 0.0 0.0 0.00 0.00 0.00 85 1013.9
20260905124558 25 0 0.0 0.0 0.00 0.00 0.00 86 1014.0
20260905123558 25 0 0.0 0.0 0.00 0.00 0.00 87 1013.9
20260905122558 24 0 0.0 0.0 0.00 0.00 0.00 87 1013.8
20260905121558 24 0 0.0 0.0 0.00 0.00 0.00 88 1013.9
20260905120558 24 0 0.0 0.0 0.00 0.00 0.00 88 1013.8
20260905115558 24 0 0.0 0.0 0.00 0.00 0.00 89 1013.9
20260905114558 24 0 0.0 0.0 0.00 0.00 0.00 88 1013.7
20260905113558 24 0 0.0 0.0 0.00 0.00 0.00 88 1013.6
20260905112557 24 0 0.0 0.0 0.00 0.00 0.00 87 1013.5
20260905111557 24 0 0.0 0.0 0.00 0.00 0.00 87 1013.3
20260905110558 25 0 0.0 0.0 0.00 0.00 0.00 87 1013.4
20260905105557 24 0 0.0 0.0 0.00 0.00 0.00 88 1013.4
20260905104558 24 0 0.0 0.0 0.00 0.00 0.00 88 1013.4
20260905103557 25 0 0.0 0.0 0.00 0.00 0.00 88 1013.4
20260905102558 24 0 0.0 0.0 0.00 0.00 0.00 88 1013.3
20260905101558 24 0 0.0 0.0 0.00 0.00 0.00 88 1013.3
20260905100557 25 0 0.0 0.0 0.00 0.00 0.00 88 1013.3
20260905095557 25 0 0.0 0.0 0.00 0.00 0.00 88 1013.3
20260905094557 25 0 0.0 0.0 0.00 0.00 0.00 88 1013.1
20260905093558 25 0 0.0 0.0 0.00 0.00 0.00 87 1013.1
20260905092557 25 0 0.0 0.0 0.00 0.00 0.00 87 1013.1
20260905091558 25 0 0.0 0.0 0.00 0.00 0.00 85 1013.2
20260905090558 25 0 0.0 0.0 0.00 0.00 0.00 84 1013.2
20260905085558 25 0 0.0 0.0 0.00 0.00 0.00 84 1013.1
20260905084557 25 0 0.0 0.0 0.00 0.00 0.00 83 1013.0
20260905083557 25 0 0.0 0.0 0.00 0.00 0.00 84 1013.1
20260905082558 25 0 0.0 0.0 0.00 0.00 0.00 83 1013.1
20260905081557 25 0 0.0 0.0 0.00 0.00 0.00 83 1013.2
20260905080557 26 0 0.0 0.0 0.00 0.00 0.00 83 1013.1
20260905075558 25 0 0.0 0.0 0.00 0.00 0.00 83 1013.1
20260905074557 26 0 0.0 0.0 0.00 0.00 0.00 83 1013.1
20260905073557 26 0 0.0 0.0 0.00 0.00 0.00 83 1013.2
20260905072558 26 0 0.0 0.0 0.00 0.00 0.00 82 1013.4
20260905071557 26 0 0.0 0.0 0.00 0.00 0.00 82 1013.2
20260905070557 26 0 0.0 0.0 0.00 0.00 0.00 81 1013.3